Weather in Lermontovo

Russia / Amur Oblast     51°20′42″N   128°41′00″E
temp.,
°C
wind,
m/s
gust,
m/s
humid.,
%
clouds,
%
prec.,
mm/h
press.,
hPa
HPBL,
m
1 july, fri
fri100:00+20ssw22790 0.0 100912
03:00+18ssw12864 0.0 101111
06:00+20s23830 0.0 101178
09:00+25s22630 0.0 1011524
12:00+28s33520 0.0 10101203
15:00+29s44500 0.0 10091538
18:00+27s45600 0.0 1008627
21:00+21s22778 0.0 100812
2 july, sat
sat200:00+20sse33783 0.0 100823
03:00+19sse228391 0.0 100821
06:00+20se3688100 0.1 1007178
09:00+24s4574100 0.1 1007505
12:00+28s4559100 0.0 10051194
15:00+25ssw4577100 3.0 1004556
18:00+24sse2583100 0.1 1003250
21:00+22sse3588100 1.1 100397
3 july, sun
sun300:00+21sse3792100 0.3 1002157
03:00+19sse37967 0.3 1002167
06:00+20se36939 0.4 1002185
09:00+24s457645 0.4 1002570
12:00+28s4463100 0.0 10021255
15:00+29ssw345857 0.6 10011642
18:00+27sse237279 2.1 1000285
21:00+22ssw228788 3.8 100112
4 july, mon
mon400:00+20wnw119090 0.0 100211
03:00+19se119393 0.0 100211
06:00+21se239420 0.0 1002113
09:00+25sse44760 0.0 1002582
12:00+28sse446615 0.2 10021225
15:00+29s346728 2.6 10021232
18:00+28sse34690 1.1 1001841
21:00+23s349058 2.3 100263
5 july, tue
tue500:00+22se359317 1.3 100277
03:00+21sse4695100 1.9 1002118
06:00+21sse5996100 0.0 1002230
09:00+23s51193100 0.1 1003420
12:00+23sse4893100 0.0 1004351
15:00+23sse51193100 0.4 1003396
18:00+23se51194100 3.6 1002312
21:00+22sse6129599 5.2 1003284